Location: Wingville
(42.9917°N, 90.4915°W)
Time: 13:40:53
(UTC+00:00)

LO-87 - Pass Details

Date: 28 June 2022
Orbit: 450 x 466 km, 97.4° (Epoch: 18 August)

Event Time Altitude Azimuth Distance (km) Brightness Sun altitude
Exits shadow 06:13:40 25° 293° (WNW) 980 ? -23.7°
Drops below altitude 10° 06:15:46 10° 325° (NW) 1,613 ? -23.7°
Sets 06:18:01 0° 337° (NNW) 2,498 ? -23.7°
